EST,Max TemperatureF,Mean TemperatureF,Min TemperatureF,Max Dew PointF,MeanDew PointF,Min DewpointF,Max Humidity, Mean Humidity, Min Humidity, Max Sea Level PressureIn, Mean Sea Level PressureIn, Min Sea Level PressureIn, Max VisibilityMiles, Mean VisibilityMiles, Min VisibilityMiles, Max Wind SpeedMPH, Mean Wind SpeedMPH, Max Gust SpeedMPH,PrecipitationIn, CloudCover, Events, WindDirDegrees
2013-1-1,32,24,17,29,20,9,88,77,63,30.15,30.08,30.00,10,8,3,14,8,,0.00,6,Rain,318
2013-1-2,19,14,10,13,9,1,88,76,64,30.26,30.21,30.10,10,8,5,8,6,,0.00,1,,228
2013-1-3,28,20,12,22,13,1,78,66,52,30.27,30.21,30.14,10,9,7,18,11,,0.00,6,,233
2013-1-4,26,22,18,19,15,11,75,70,62,30.30,30.26,30.20,10,10,10,22,15,31,0.00,2,,239
2013-1-5,36,27,18,28,21,13,86,74,61,30.34,30.24,30.11,10,8,2,15,11,21,0.00,3,Snow,205
2013-1-6,36,31,26,30,26,21,85,78,70,30.32,30.09,29.97,10,6,3,22,13,28,0.00,8,Rain,242
2013-1-7,34,28,21,25,22,19,93,80,66,30.46,30.36,30.23,9,6,1,15,7,,0.00,3,,200
2013-1-8,39,31,23,28,24,18,81,72,62,30.31,30.26,30.22,10,8,5,12,8,,0.00,0,,183
2013-1-9,43,39,35,34,31,27,82,71,62,30.52,30.30,30.16,10,10,10,21,13,22,0.00,2,Rain,230
2013-1-10,42,35,28,30,27,24,85,73,58,30.56,30.40,30.13,10,10,6,17,7,20,0.00,3,Rain,113
2013-1-11,57,50,42,52,46,31,100,83,65,30.10,29.91,29.84,10,9,2,23,12,29,0.50,6,Rain,185
2013-1-12,61,56,51,58,51,45,94,86,74,30.01,29.90,29.74,10,7,1,17,10,18,0.75,4,Rain,167
2013-1-13,64,48,33,60,44,30,100,93,83,30.11,29.86,29.65,10,5,0,28,12,37,0.84,8,Fog-Rain,294
2013-1-14,32,26,21,27,18,14,86,78,71,30.44,30.36,30.11,10,8,2,17,10,23,0.00,8,Snow,315
2013-1-15,32,26,21,22,19,16,86,75,61,30.43,30.33,30.12,10,10,10,13,6,,0.00,4,,29
2013-1-16,34,30,27,25,23,21,89,73,61,30.10,30.01,29.94,10,9,5,18,8,25,0.00,4,,237
2013-1-17,37,30,21,29,24,12,82,72,59,30.38,30.18,30.03,10,9,6,17,11,24,0.00,4,,276
2013-1-18,37,28,19,22,17,13,78,61,46,30.50,30.35,30.10,10,10,10,22,11,31,0.00,1,,214
2013-1-19,51,44,37,33,26,21,65,50,44,30.10,29.96,29.79,10,10,10,26,18,34,0.00,0,,215
2013-1-20,44,32,19,33,14,10,69,61,48,30.23,30.12,29.78,10,10,8,29,18,40,0.00,4,Snow,293
2013-1-21,19,14,9,10,6,-4,73,64,47,30.21,30.09,30.02,10,7,0,26,15,36,0.00,7,Snow,270
2013-1-22,12,8,5,-1,-3,-5,66,57,47,30.36,30.31,30.21,10,10,10,20,16,25,0.00,2,,269
2013-1-23,19,14,8,13,5,-3,81,65,44,30.34,30.20,30.05,10,7,2,15,11,,0.00,7,Snow,243
2013-1-24,21,14,8,13,7,2,79,68,52,30.61,30.42,30.06,10,9,2,21,11,28,0.00,2,Snow,10
2013-1-25,24,20,17,19,14,7,86,76,59,30.47,30.14,30.00,10,4,0,13,9,,0.06,8,Fog-Snow,177
2013-1-26,26,19,12,20,17,8,84,76,64,30.49,30.26,30.05,10,7,2,14,8,,0.00,7,Snow,294
2013-1-27,34,24,15,31,18,9,89,73,64,30.49,30.36,30.13,10,8,4,21,9,26,0.17,5,Rain,147
2013-1-28,51,42,33,48,43,30,100,89,81,30.12,30.01,29.94,6,4,0,21,16,30,0.13,8,Fog-Rain,202
2013-1-29,62,54,48,55,51,47,97,84,72,30.00,29.82,29.51,10,6,0,23,14,33,0.01,7,Fog,193
2013-1-30,64,48,33,55,46,26,94,82,73,29.48,29.33,29.21,10,9,4,29,20,41,0.50,7,Rain,234
2013-1-31,32,24,15,25,15,5,80,71,57,30.00,29.78,29.45,10,6,0,33,23,45,0.00,8,Snow,268